Theta_e
315 314 317 312 303 300 296 298 302 300 302 303 304 304 302 299 300 301 303 308 309 312 315 317 322 325 325 325 324 324 326 326 327 328 328 328 330 330 331 330 336 334 333 334 333 331 329 330 329
312 314 313 304 297 292 295 300 299 301 301 301 301 300 298 296 301 300 302 308 311 313 315 319 323 323 323 322 323 323 322 323 325 325 327 328 327 330 328 335 334 332 332 331 329 328 328 326 326
313 309 307 299 293 292 295 300 299 302 301 304 298 299 298 297 300 301 305 309 311 312 314 319 322 322 323 324 323 322 324 322 323 323 325 326 326 329 329 332 330 331 329 328 327 327 326 324 323
309 307 304 297 295 298 298 300 302 302 305 304 300 296 298 300 301 303 308 308 309 310 312 317 321 322 320 319 320 321 320 319 320 321 321 324 326 328 328 329 328 327 325 326 325 324 323 321 320
306 303 297 295 295 297 299 301 303 300 300 300 300 295 295 299 303 305 306 307 307 307 311 315 317 319 318 316 317 317 317 317 318 319 319 323 326 326 328 327 324 324 323 322 321 320 319 318 317
303 301 294 292 295 298 299 301 301 300 300 299 297 295 295 300 301 302 305 306 307 307 309 310 314 315 314 312 314 315 314 314 315 316 317 319 323 325 325 324 323 322 321 319 318 317 316 315 314
301 297 294 294 295 297 300 301 300 299 299 299 299 294 295 298 300 302 304 305 306 306 306 307 306 305 307 308 309 311 311 310 310 311 314 314 317 322 321 320 319 319 318 317 315 313 312 311 311
300 299 295 295 295 296 299 300 300 301 298 299 297 294 293 298 300 302 303 303 304 304 305 303 300 298 297 299 305 306 306 306 307 308 308 307 309 314 317 315 316 316 313 311 309 309 308 307 307
302 296 293 295 296 297 299 298 299 299 297 296 296 296 296 299 301 301 301 302 303 303 302 301 298 296 296 296 296 298 300 301 300 301 303 302 304 308 310 313 312 311 310 308 306 304 302 300 301
297 294 295 298 299 298 298 299 297 298 296 295 296 295 296 298 299 299 299 299 300 300 300 298 296 294 294 294 293 294 294 294 295 296 297 299 303 305 305 306 306 306 305 305 303 301 298 295 293
295 293 294 294 297 300 298 297 297 296 295 298 296 294 295 296 297 298 298 299 300 300 299 296 294 293 293 293 292 293 293 293 294 295 297 298 299 300 299 299 298 297 297 295 295 294 294 293 292
293 293 293 295 298 298 298 297 295 296 298 296 298 296 295 295 295 296 297 298 300 299 296 294 292 291 291 291 291 292 293 292 293 294 295 297 298 298 298 297 297 296 296 295 294 294 293 292 292
293 291 292 293 294 295 296 294 294 294 294 295 295 295 295 294 295 296 297 299 299 297 295 293 291 291 290 290 290 291 291 291 292 293 294 295 296 297 297 297 297 296 295 295 294 294 293 292 291
291 291 291 292 292 292 293 291 292 291 293 293 294 294 294 294 294 295 297 298 299 297 294 292 291 290 290 289 290 290 290 291 291 292 293 293 294 295 297 297 296 296 295 295 294 294 293 292 291
292 290 290 290 291 290 291 290 290 291 293 293 293 293 293 294 294 295 297 298 299 296 293 291 290 290 289 289 289 289 290 290 290 291 292 292 293 293 295 296 296 296 295 294 294 293 293 291 291
290 290 288 290 290 289 291 287 289 290 292 292 292 291 293 293 294 295 297 299 298 295 292 291 292 289 288 288 288 289 289 289 289 290 291 291 292 292 293 294 295 295 295 294 293 292 291 291 290
286 284 285 287 289 288 289 287 288 289 290 290 290 290 291 292 293 294 296 298 298 295 292 290 289 288 288 288 288 288 288 288 288 289 290 290 291 291 291 292 293 294 294 293 293 291 291 290 290
284 282 283 285 285 285 284 286 288 288 289 290 290 290 290 291 293 294 295 298 297 294 291 289 288 288 287 287 287 287 288 288 288 288 289 289 290 290 290 291 292 293 293 292 292 291 290 290 290
286 284 283 283 284 285 285 285 288 287 286 287 287 288 288 290 293 293 295 297 295 291 289 288 287 287 287 287 287 287 286 286 287 288 288 288 289 289 289 290 291 292 292 291 291 290 290 289 289
285 284 282 282 283 285 281 283 285 285 287 287 289 288 288 288 290 292 293 295 295 291 289 288 288 287 287 288 287 287 286 286 287 287 287 288 288 288 288 288 289 290 291 291 290 290 289 288 287
282 283 280 281 282 281 281 281 282 283 283 284 286 288 287 287 289 290 292 294 294 291 289 288 288 288 288 288 287 286 286 286 286 286 287 287 287 288 288 288 288 289 290 290 290 289 288 287 287
282 284 283 282 281 279 280 276 280 281 283 284 284 284 286 286 289 291 292 293 295 293 290 289 289 289 289 288 287 286 285 284 284 285 286 286 287 287 288 287 287 288 288 288 288 288 288 288 286
283 285 283 282 280 278 278 277 281 280 283 285 286 285 284 285 288 290 292 295 296 293 291 290 289 289 290 289 287 286 284 284 285 285 285 285 286 287 287 287 287 287 287 287 287 287 287 287 287
285 284 283 280 279 275 278 278 280 281 284 285 286 286 286 284 286 290 293 295 295 294 291 290 290 290 290 288 287 286 285 284 284 284 284 285 285 286 286 287 286 287 287 286 286 287 287 286 286
283 282 275 274 273 275 278 276 284 284 285 287 288 286 286 287 286 289 291 293 294 293 292 291 290 289 289 288 287 287 285 285 284 284 284 284 285 285 285 286 286 286 286 286 287 287 286 286 286
282 283 278 272 271 275 278 276 283 283 284 287 288 287 287 287 289 289 291 293 294 294 292 292 290 289 288 287 287 286 285 285 285 284 284 284 285 285 286 286 286 286 286 286 286 286 286 286 286
283 281 284 278 268 273 276 280 285 284 286 287 287 286 287 287 288 290 291 292 293 293 292 291 290 289 288 287 287 285 285 284 284 284 284 284 285 285 285 285 285 285 286 286 286 286 286 286 286
282 286 279 277 270 271 275 278 282 285 286 286 285 286 287 287 288 289 290 291 292 293 292 291 290 289 288 287 286 285 285 284 284 284 283 284 284 285 285 285 285 285 285 285 285 285 285 285 285
281 281 280 281 279 275 273 278 285 288 288 287 286 287 287 287 288 289 290 291 292 291 291 290 289 288 287 286 285 285 284 284 284 284 283 284 284 284 284 284 284 284 284 285 285 284 284 284 284
281 282 282 280 276 276 278 279 285 287 288 289 288 288 287 288 289 289 290 290 290 290 289 289 288 287 287 286 285 285 284 284 283 283 283 283 283 283 283 283 283 283 283 283 284 284 284 284 283
Wind_Speed
5 3 2 5 5 4 2 1 1 2 2 2 1 1 6 4 3 2 1 3 3 4 4 6 10 11 12 13 14 11 13 15 14 14 15 14 16 15 16 13 17 22 21 22 23 22 21 23 23
3 2 5 3 5 3 1 1 3 0 4 6 4 2 5 4 2 5 3 2 4 4 5 6 11 12 13 11 12 12 11 11 13 13 14 15 15 16 13 15 20 19 21 21 20 21 22 22 22
2 4 4 5 3 3 3 3 4 2 5 0 3 5 2 2 2 5 4 5 5 6 5 8 12 12 11 13 13 12 13 11 12 12 14 15 13 14 13 18 20 22 22 21 20 21 22 21 21
4 5 4 5 3 1 1 2 3 4 1 2 3 6 3 2 1 4 7 6 6 5 7 9 12 12 13 13 12 12 11 11 11 12 12 14 13 14 15 19 21 20 22 20 21 22 22 22 22
4 3 4 4 2 2 1 2 4 3 1 2 1 3 3 3 6 8 6 5 7 5 6 8 11 12 13 12 11 10 11 12 12 12 12 12 14 15 16 19 19 21 20 21 21 22 21 22 22
4 3 4 3 2 1 1 3 4 2 3 2 5 3 2 3 3 4 6 7 6 7 7 7 11 11 14 12 11 11 11 11 12 11 11 12 17 15 18 19 19 20 20 20 21 21 22 22 22
6 4 3 5 5 3 5 4 4 4 4 1 5 4 1 3 6 6 6 6 7 7 7 7 9 11 13 13 13 12 12 12 12 10 11 11 14 16 18 18 18 18 19 19 20 22 22 22 22
5 5 3 1 4 4 4 4 2 2 2 2 1 4 4 5 9 8 7 7 7 8 8 8 8 8 9 9 13 12 12 12 11 12 11 10 13 18 19 15 18 20 19 20 20 21 22 23 23
3 5 2 4 6 5 4 4 1 3 5 3 3 2 1 14 11 7 5 5 5 7 6 7 7 7 7 7 8 11 11 12 12 11 12 9 8 11 14 16 19 19 20 21 22 21 20 19 22
4 3 7 4 5 4 6 2 7 3 3 2 2 4 7 10 9 9 6 6 4 5 6 6 6 6 7 6 7 6 6 6 6 7 7 6 8 9 11 14 18 18 20 21 21 20 18 16 10
2 3 5 2 2 5 7 3 2 6 2 5 6 8 10 7 6 7 5 4 6 4 5 6 6 6 7 5 4 3 3 4 4 7 7 7 6 6 6 6 6 7 12 8 11 10 9 13 10
5 2 1 1 3 4 7 7 4 4 3 1 2 14 11 10 9 8 7 6 6 6 6 6 5 6 6 4 4 4 4 4 4 5 6 5 4 6 6 6 7 7 6 9 9 7 10 13 13
4 2 3 3 5 5 6 3 1 4 3 5 9 11 11 9 7 4 6 6 7 7 6 6 5 5 5 6 4 4 5 5 5 5 6 4 5 5 5 6 6 7 7 8 8 8 9 11 12
3 4 3 4 2 3 3 1 0 1 4 6 9 9 8 9 8 5 7 7 6 7 7 6 6 5 6 6 5 4 4 5 5 5 5 6 4 4 5 5 6 6 6 6 7 7 8 9 10
5 5 2 4 2 2 2 4 7 3 4 6 7 7 7 7 7 8 8 8 9 7 8 7 7 5 6 6 5 4 5 5 5 5 6 6 5 5 4 4 5 6 6 8 7 7 7 8 8
5 5 3 3 1 2 3 9 2 3 6 6 7 6 6 6 6 6 7 7 8 9 9 7 6 6 6 6 5 5 5 5 5 5 5 7 6 5 4 4 5 5 6 5 6 6 7 7 8
7 4 3 4 2 1 2 7 3 3 4 6 6 6 6 5 4 5 7 8 9 10 10 8 8 7 7 7 6 6 7 5 5 5 5 6 6 5 4 3 4 5 5 5 5 4 4 5 5
8 5 3 5 2 2 2 11 6 2 5 8 7 7 7 8 10 7 8 7 9 8 8 9 7 8 7 6 6 5 5 5 5 5 5 6 5 5 4 3 4 4 5 4 4 5 5 3 3
8 5 5 2 0 3 6 9 13 5 5 8 8 8 8 10 5 7 8 8 9 8 9 10 10 8 7 3 3 3 3 3 4 4 5 5 5 5 4 3 3 3 4 5 5 3 4 2 3
6 5 4 1 0 3 3 12 12 7 9 10 13 11 11 5 6 7 9 9 10 11 10 10 9 10 6 3 2 2 3 3 3 3 5 5 5 5 4 4 3 4 4 5 3 2 2 2 4
2 7 5 2 2 1 4 10 7 4 4 5 7 6 7 12 12 9 11 11 10 12 12 11 10 10 7 5 6 5 4 3 1 2 3 4 5 5 5 5 3 4 3 4 2 1 1 2 4
6 5 6 6 4 4 2 7 7 4 8 7 8 10 10 11 8 7 12 12 14 11 9 10 10 10 7 8 4 4 3 3 1 2 2 3 5 5 5 5 4 4 3 4 2 2 3 2 2
4 7 7 4 4 2 1 2 10 1 7 10 10 10 10 10 11 14 16 16 12 11 12 10 10 9 7 7 6 4 3 3 3 3 5 4 4 5 5 5 5 5 4 4 3 3 4 2 2
12 8 8 5 3 2 6 6 8 6 8 4 4 9 9 9 9 8 7 10 10 9 10 9 10 9 7 7 7 6 7 7 6 4 4 3 3 3 5 6 6 6 6 6 6 7 8 7 7
4 8 3 4 2 7 3 2 14 6 7 6 6 8 8 7 8 8 12 12 12 12 11 9 10 8 7 8 7 6 6 8 8 7 4 5 3 2 3 4 5 4 5 5 6 7 7 5 6
8 9 8 10 6 4 2 9 11 4 3 3 2 6 7 8 7 9 11 12 14 14 12 11 11 8 8 7 6 5 7 5 5 6 5 4 3 4 3 4 5 5 5 5 5 5 5 5 5
8 7 7 9 2 3 6 9 12 5 6 5 6 7 9 8 8 9 9 11 12 13 13 12 11 8 8 8 6 6 7 8 7 7 6 5 5 4 5 4 5 4 4 4 4 4 4 4 4
5 10 4 3 5 5 5 6 9 6 10 8 8 10 8 6 8 8 9 10 10 11 9 9 10 10 9 8 7 6 7 7 7 7 8 7 6 6 6 5 5 4 4 4 4 4 4 4 3
4 5 2 5 6 7 3 9 9 14 7 14 9 9 10 9 8 8 8 8 10 9 10 10 9 10 9 8 7 7 7 7 7 7 7 8 7 7 6 6 5 5 5 4 4 4 3 4 4
1 7 7 9 6 3 2 9 0 4 4 8 13 10 7 6 7 7 8 10 11 11 10 11 9 9 8 7 7 7 7 7 7 6 7 7 7 6 6 6 5 5 4 4 4 4 3 3 3
Wind_Direction
354 358 93 47 58 67 97 160 284 102 113 328 8 151 115 52 54 105 143 93 70 46 13 5 37 38 43 43 44 37 37 41 45 42 45 44 49 47 49 43 55 59 59 58 52 55 53 50 49
346 6 51 81 81 67 311 243 165 107 139 138 86 68 47 77 68 113 130 130 80 63 26 16 38 44 44 45 45 45 44 37 48 46 44 51 50 45 48 43 64 59 57 56 57 53 51 48 47
60 27 73 83 98 116 168 196 154 93 147 68 94 47 60 81 76 128 112 117 79 52 25 42 46 50 48 50 45 41 38 52 46 51 46 52 53 44 44 54 60 56 57 54 58 57 56 50 49
40 13 47 73 75 178 208 172 131 134 208 78 125 73 84 10 97 120 124 107 87 48 32 44 49 55 54 48 45 42 39 52 56 58 57 54 47 47 50 60 60 59 59 60 58 57 56 53 52
36 56 62 75 68 312 298 149 169 99 80 65 66 148 71 27 87 97 105 99 92 56 41 41 58 53 56 52 47 52 50 52 53 53 60 51 46 57 62 68 66 65 65 62 60 58 57 55 52
43 85 62 130 129 276 281 206 169 105 140 150 85 102 93 134 100 103 102 89 85 80 63 52 47 60 57 49 53 54 55 54 56 53 59 58 36 42 67 65 68 69 68 64 61 59 58 56 55
101 73 157 137 142 143 196 182 138 136 144 62 142 96 122 192 135 120 101 95 80 74 72 65 62 60 51 53 53 54 57 58 57 56 53 41 38 47 69 66 69 70 67 65 64 63 62 61 58
98 92 110 182 174 175 200 156 112 127 139 112 29 166 182 174 136 116 100 87 78 67 75 77 70 64 57 44 52 56 56 57 60 60 57 45 50 49 70 70 74 74 73 70 69 66 65 64 60
124 67 159 209 160 149 187 135 358 126 111 51 25 56 51 127 130 122 113 89 74 69 68 69 63 60 64 58 52 49 51 55 54 47 51 47 56 52 56 75 75 73 73 73 72 71 69 63 58
85 112 210 180 176 157 176 155 156 142 102 121 107 56 110 131 145 143 143 122 106 90 74 78 74 70 66 64 54 53 53 53 53 54 57 60 61 65 66 67 70 70 73 73 71 68 65 63 61
111 157 164 207 155 141 145 105 129 118 239 203 192 155 155 155 159 152 141 142 132 112 91 85 84 76 74 70 61 54 54 55 57 55 57 69 79 74 73 79 75 78 73 71 67 61 60 65 62
91 92 349 135 113 125 152 124 149 182 177 346 224 150 157 165 172 165 158 150 139 122 112 98 94 91 80 79 65 62 60 55 57 53 58 76 81 79 80 82 81 80 75 81 73 69 72 69 65
91 148 52 57 88 76 121 83 183 229 118 77 112 140 163 164 167 169 152 143 140 128 126 113 110 100 96 83 74 64 61 59 58 56 54 63 80 88 91 86 87 86 89 84 82 76 73 71 66
99 90 93 33 52 69 142 126 88 103 121 106 136 160 170 172 166 139 162 156 152 137 134 128 117 113 104 89 83 77 67 61 60 58 55 64 76 88 94 100 97 93 90 87 85 80 76 73 71
133 84 57 28 6 45 349 292 232 109 132 142 163 168 175 189 172 182 178 165 156 151 140 137 131 121 105 96 85 72 60 63 60 58 56 66 67 81 99 110 105 104 101 97 92 84 80 78 73
72 54 112 296 77 353 96 265 270 122 148 179 184 189 192 196 196 184 173 163 158 147 148 151 135 124 108 97 85 75 62 62 55 49 54 60 65 73 91 110 115 119 110 105 95 91 85 79 74
11 183 185 293 213 131 155 267 283 113 176 207 210 205 212 218 211 197 182 172 165 154 149 141 137 133 121 103 92 81 74 63 53 50 48 51 63 65 81 102 122 130 119 110 108 89 83 84 82
185 161 210 210 214 88 247 262 263 242 194 225 217 210 210 214 217 190 177 170 160 150 144 141 141 139 122 107 100 86 78 66 55 50 49 48 59 65 82 91 119 133 124 117 112 103 69 59 56
141 136 174 232 341 178 239 265 267 234 219 239 235 221 222 219 210 179 176 165 150 143 149 158 152 154 143 133 123 103 87 75 63 55 52 50 62 67 82 87 117 137 139 135 128 102 85 51 4
126 130 205 300 4 162 351 274 261 216 224 204 211 219 220 187 192 184 174 165 168 165 166 162 163 164 167 131 122 123 129 89 83 69 60 48 57 65 84 92 105 133 137 139 142 125 117 31 359
147 160 174 190 130 58 330 291 260 252 232 207 222 201 198 196 197 189 179 176 170 174 173 171 171 172 171 128 114 91 93 96 103 62 58 36 59 68 80 90 104 109 138 159 159 142 152 140 47
155 184 128 131 110 225 46 272 288 260 260 230 220 205 204 193 191 175 177 180 184 182 168 168 170 173 169 160 147 152 150 149 142 120 103 66 57 70 76 82 93 97 108 123 130 136 115 119 123
165 120 124 119 105 71 261 60 268 1 262 241 221 216 213 202 188 185 186 188 182 165 173 173 168 169 163 169 165 149 129 112 124 118 111 90 70 71 80 87 92 95 101 105 118 110 95 90 107
146 85 49 55 72 348 216 151 272 208 212 237 203 204 203 193 192 182 169 157 163 162 166 165 167 175 163 167 167 164 151 148 144 141 133 117 91 71 71 84 87 91 100 98 94 90 87 89 90
107 101 22 353 359 224 11 72 251 250 224 219 211 194 185 175 168 165 163 167 165 169 169 167 168 168 166 167 168 167 160 161 158 155 150 147 131 97 86 92 95 94 96 93 95 92 90 83 83
187 161 153 189 194 219 86 229 250 224 219 188 283 169 156 164 169 173 174 171 170 170 167 167 168 159 164 164 167 164 158 154 153 156 153 150 147 137 131 111 111 108 99 96 93 89 84 81 78
191 197 148 107 15 60 205 280 290 206 240 188 189 160 184 180 174 178 171 171 168 165 170 170 163 157 164 165 160 160 158 157 159 157 156 159 152 146 143 134 124 113 107 103 99 97 90 78 76
188 151 90 356 136 247 256 275 244 248 222 202 196 197 192 179 177 172 173 170 165 164 158 153 162 166 166 160 160 164 161 156 155 156 162 164 153 148 148 143 132 120 113 114 108 96 89 96 71
146 183 150 132 164 171 180 254 220 226 201 198 193 198 186 187 183 175 170 163 158 150 157 159 158 155 163 160 156 152 156 155 154 163 166 164 155 158 157 152 146 142 141 133 121 111 120 111 106
255 190 167 182 209 239 149 267 203 246 216 172 185 189 186 179 177 166 160 155 156 161 159 165 164 164 167 154 150 155 149 153 159 164 168 163 160 162 158 153 149 152 159 150 151 154 148 150 130